FW1757 Weather Reports


time (UTC)temp
C
wind
direction
speed
KPH
gust
KPH
rain 1hr
cm
rain 24hr
cm
rain mn
cm
humidity
%
barometer
mb
20260902102530 15 248 0.0 0.0 0.00 0.00 0.00 71 1008.1
20260902102029 15 213 0.0 0.0 0.00 0.00 0.00 71 1008.2
20260902101528 15 223 0.0 0.0 0.00 0.00 0.00 71 1008.2
20260902101030 15 271 0.0 0.0 0.00 0.00 0.00 71 1008.2
20260902100528 15 263 0.0 0.0 0.00 0.00 0.00 71 1008.2
20260902100028 15 196 0.0 0.0 0.00 0.00 0.00 71 1008.3
20260902095528 15 252 0.0 0.0 0.00 0.00 0.00 71 1008.3
20260902095027 15 277 0.0 0.0 0.00 0.00 0.00 71 1008.3
20260902094528 15 254 0.0 0.0 0.00 0.00 0.00 71 1008.2
20260902094027 15 267 0.0 0.0 0.00 0.00 0.00 71 1008.3
20260902093527 15 272 0.0 0.0 0.00 0.00 0.00 71 1008.1
20260902093026 15 293 0.0 0.0 0.00 0.00 0.00 71 1008.3
20260902092528 15 298 0.0 0.0 0.00 0.00 0.00 71 1008.4
20260902092026 15 251 0.0 0.0 0.00 0.00 0.00 71 1008.4
20260902091527 15 263 0.0 0.0 0.00 0.00 0.00 71 1008.3
20260902091026 15 268 0.0 0.0 0.00 0.00 0.00 71 1008.4
20260902090525 15 286 0.0 0.0 0.00 0.00 0.00 71 1008.4
20260902090029 15 288 0.0 0.0 0.00 0.00 0.00 71 1008.4
20260902085528 15 281 0.0 0.0 0.00 0.00 0.00 71 1008.4
20260902085024 15 290 0.0 0.0 0.00 0.00 0.00 71 1008.3
20260902084534 15 262 0.0 0.0 0.00 0.00 0.00 71 1008.4
20260902084027 15 248 0.0 0.0 0.00 0.00 0.00 71 1008.4
20260902083528 15 306 0.0 0.0 0.00 0.00 0.00 71 1008.4
20260902083023 15 299 0.0 0.0 0.00 0.00 0.00 71 1008.3
20260902082524 15 286 0.0 0.0 0.00 0.00 0.00 71 1008.4
20260902082022 15 283 0.0 0.0 0.00 0.00 0.00 71 1008.4
20260902081523 15 272 0.0 0.0 0.00 0.00 0.00 71 1008.4
20260902081023 15 271 0.0 0.0 0.00 0.00 0.00 71 1008.3
20260902080522 15 259 0.0 0.0 0.00 0.00 0.00 71 1008.3
20260902080023 15 259 0.0 0.0 0.00 0.00 0.00 70 1008.3
20260902075520 15 243 0.0 0.0 0.00 0.00 0.00 71 1008.4
20260902075020 15 253 0.0 0.0 0.00 0.00 0.00 71 1008.5
20260902074520 16 229 0.0 0.0 0.00 0.00 0.00 71 1008.6
20260902074019 16 295 0.0 0.0 0.00 0.00 0.00 70 1008.7
20260902073520 16 282 0.0 0.0 0.00 0.00 0.00 70 1008.5
20260902073018 16 281 0.0 0.0 0.00 0.00 0.00 70 1008.5
20260902072518 16 293 0.0 0.0 0.00 0.00 0.00 70 1008.5
20260902072017 16 286 0.0 0.0 0.00 0.00 0.00 70 1008.4
20260902071517 16 270 0.0 0.0 0.00 0.00 0.00 70 1008.6
20260902071016 16 292 0.0 0.0 0.00 0.00 0.00 69 1008.7
20260902070514 16 302 0.0 0.0 0.00 0.00 0.00 69 1008.7
20260902070022 16 300 0.0 0.0 0.00 0.00 0.00 69 1008.6
20260902065513 16 317 0.0 0.0 0.00 0.00 0.00 69 1008.4
20260902065015 16 298 0.0 0.0 0.00 0.00 0.00 69 1008.6
20260902064514 16 301 0.0 0.0 0.00 0.00 0.00 68 1008.5
20260902064012 16 287 0.0 0.0 0.00 0.00 0.00 68 1008.6
20260902063513 16 304 0.0 0.0 0.00 0.00 0.00 68 1008.8
20260902063035 17 290 0.0 0.0 0.00 0.00 0.00 68 1008.8
20260902062513 17 248 0.0 0.0 0.00 0.00 0.00 68 1008.6
20260902062012 17 254 0.0 0.0 0.00 0.00 0.00 68 1008.6
20260902061512 17 284 0.0 0.0 0.00 0.00 0.00 67 1008.5
20260902061012 17 275 0.0 0.0 0.00 0.00 0.00 67 1008.5
20260902060512 17 290 0.0 0.0 0.00 0.00 0.00 67 1008.6
20260902060012 17 275 0.0 0.0 0.00 0.00 0.00 67 1008.7
20260902055511 17 286 0.0 0.0 0.00 0.00 0.00 67 1008.5
20260902055011 17 280 0.0 0.0 0.00 0.00 0.00 67 1008.7
20260902054513 17 287 0.0 0.0 0.00 0.00 0.00 67 1008.9
20260902054011 17 212 0.0 0.0 0.00 0.00 0.00 67 1008.6
20260902053511 17 269 0.0 0.0 0.00 0.00 0.00 67 1008.4
20260902053011 17 299 0.0 0.0 0.00 0.00 0.00 67 1008.5
20260902052510 17 246 0.0 0.0 0.00 0.00 0.00 67 1008.5
20260902052010 17 312 0.0 0.0 0.00 0.00 0.00 67 1008.5
20260902051511 17 275 0.0 0.0 0.00 0.00 0.00 66 1008.6
20260902051011 17 269 0.0 0.0 0.00 0.00 0.00 66 1008.6
20260902050511 17 279 0.0 0.0 0.00 0.00 0.00 66 1008.9
20260902050012 17 239 0.0 0.0 0.00 0.00 0.00 66 1008.7
20260902045508 17 286 0.0 0.0 0.00 0.00 0.00 65 1008.6
20260902045008 17 292 0.0 0.0 0.00 0.00 0.00 65 1008.6
20260902044508 17 255 0.0 0.0 0.00 0.00 0.00 65 1008.4
20260902044008 17 285 0.0 0.0 0.00 0.00 0.00 64 1008.3
20260902043507 17 322 0.0 0.0 0.00 0.00 0.00 64 1008.3
20260902043007 17 286 0.0 0.0 0.00 0.00 0.00 64 1008.3
20260902042508 17 259 0.0 0.0 0.00 0.00 0.00 64 1008.3
20260902042007 17 302 0.0 0.0 0.00 0.00 0.00 64 1008.3
20260902041505 17 279 0.0 0.0 0.00 0.00 0.00 64 1008.1
20260902041005 17 282 0.0 0.0 0.00 0.00 0.00 64 1007.9
20260902040505 17 317 0.0 0.0 0.00 0.00 0.00 64 1007.8
20260902040005 17 286 0.0 0.0 0.00 0.00 0.00 64 1007.7
20260902035504 17 294 0.0 0.0 0.00 0.00 0.00 64 1007.9
20260902035004 17 298 0.0 0.0 0.00 0.00 0.00 65 1007.8
20260902034505 17 248 0.0 0.0 0.00 0.00 0.00 65 1007.6
20260902034004 17 261 0.0 0.0 0.00 0.00 0.00 65 1007.7
20260902033504 17 257 0.0 0.0 0.00 0.00 0.00 65 1007.6
20260902033004 17 311 0.0 0.0 0.00 0.00 0.00 65 1007.4
20260902032506 17 318 0.0 0.0 0.00 0.00 0.00 65 1007.5
20260902032003 17 283 0.0 0.0 0.00 0.00 0.00 65 1007.6
20260902031515 17 300 0.0 0.0 0.00 0.00 0.00 65 1007.6
20260902031003 17 288 0.0 0.0 0.00 0.00 0.00 64 1007.6
20260902030507 17 288 0.0 0.0 0.00 0.00 0.00 64 1007.6
20260902030004 18 273 0.0 0.0 0.00 0.00 0.00 64 1007.8
20260902025604 18 278 0.0 0.0 0.00 0.00 0.00 64 1007.7
20260902025002 18 275 0.0 0.0 0.00 0.00 0.00 64 1007.5
20260902024502 18 269 0.0 0.0 0.00 0.00 0.00 64 1007.4
20260902024001 18 308 0.0 0.0 0.00 0.00 0.00 63 1007.4
20260902023501 18 277 0.0 0.0 0.00 0.00 0.00 63 1007.3
20260902023008 18 267 0.0 0.0 0.00 0.00 0.00 63 1007.1
20260902022502 18 271 0.0 0.0 0.00 0.00 0.00 63 1007.0
20260902022004 18 292 0.0 0.0 0.00 0.00 0.00 63 1007.0
20260902021504 18 281 0.0 0.0 0.00 0.00 0.00 63 1006.9
20260902021001 18 308 0.0 0.0 0.00 0.00 0.00 63 1007.3
20260902020501 18 273 0.0 0.0 0.00 0.00 0.00 63 1007.0
20260902020001 18 322 0.0 0.0 0.00 0.00 0.00 62 1007.1
20260902015603 18 296 0.0 0.0 0.00 0.00 0.00 62 1006.9
20260902015101 18 244 0.0 0.0 0.00 0.00 0.00 61 1007.0
20260902014600 18 261 0.0 0.0 0.00 0.00 0.00 60 1006.9
20260902014059 18 252 0.0 0.0 0.00 0.00 0.00 60 1006.8
20260902013600 19 288 0.0 0.0 0.00 0.00 0.00 59 1006.7
20260902013110 19 317 0.0 0.0 0.00 0.00 0.00 59 1006.7
20260902012600 19 250 0.0 0.0 0.00 0.00 0.00 58 1006.7
20260902012059 19 289 0.0 0.0 0.00 0.00 0.00 58 1006.7
20260902011559 20 285 0.0 0.0 0.00 0.00 0.00 59 1006.7
20260902011059 19 293 0.0 0.0 0.00 0.00 0.00 59 1006.9
20260902010601 19 277 0.0 0.0 0.00 0.00 0.00 59 1006.7
20260902010500 19 262 0.0 0.0 0.00 0.00 0.00 59 1006.8
20260902010105 19 278 0.0 0.0 0.00 0.00 0.00 59 1006.6
20260902005558 19 285 0.0 0.0 0.00 0.00 0.00 59 1006.6
20260902005058 19 305 0.0 0.0 0.00 0.00 0.00 59 1006.5
20260902004558 19 300 0.0 0.0 0.00 0.00 0.00 59 1006.6
20260902004059 19 318 0.0 0.0 0.00 0.00 0.00 59 1006.6
20260902003557 20 296 0.0 0.0 0.00 0.00 0.00 59 1006.6
20260902003057 20 275 0.0 0.0 0.00 0.00 0.00 59 1006.4
20260902002558 20 288 0.0 0.0 0.00 0.00 0.00 59 1006.4
20260902002056 20 263 0.0 0.0 0.00 0.00 0.00 60 1006.5
20260902001602 19 304 0.0 0.0 0.00 0.00 0.00 60 1006.4
20260902001056 19 319 0.0 0.0 0.00 0.00 0.00 61 1006.3
20260902000556 19 293 0.0 0.0 0.00 0.00 0.00 61 1006.4
20260902000057 19 254 0.0 0.0 0.00 0.00 0.00 61 1006.4
20260901235557 19 292 0.0 0.0 0.00 0.00 0.00 60 1006.5
20260901235056 19 269 0.0 0.0 0.00 0.00 0.00 59 1006.5
20260901234657 19 319 0.0 0.0 0.00 0.00 0.00 60 1006.4
20260901234057 19 279 0.0 0.0 0.00 0.00 0.00 60 1006.5
20260901233555 19 282 0.0 0.0 0.00 0.00 0.00 60 1006.6
20260901233055 19 274 0.0 0.0 0.00 0.00 0.00 60 1006.6
20260901232555 19 279 0.0 0.0 0.00 0.00 0.00 60 1006.6
20260901232057 20 271 0.0 0.0 0.00 0.00 0.00 59 1006.7
20260901231604 20 247 0.0 0.0 0.00 0.00 0.00 58 1006.7
20260901231054 20 306 0.0 0.0 0.00 0.00 0.00 58 1006.6
20260901230554 20 288 0.0 0.0 0.00 0.00 0.00 59 1006.6
20260901230107 20 300 0.0 0.0 0.00 0.00 0.00 59 1006.6
20260901225554 20 288 0.0 0.0 0.00 0.00 0.00 59 1006.6
20260901225053 20 232 0.0 0.0 0.00 0.00 0.00 59 1006.7
20260901224554 20 295 0.0 0.0 0.00 0.00 0.00 59 1006.5
20260901224058 20 221 0.0 0.0 0.00 0.00 0.00 59 1006.6
20260901223559 20 290 0.0 0.0 0.00 0.00 0.00 58 1006.5
20260901223053 20 277 0.0 0.0 0.00 0.00 0.00 57 1006.6
20260901222555 20 279 0.0 0.0 0.00 0.00 0.00 57 1006.7
20260901222052 21 294 0.0 0.0 0.00 0.00 0.00 56 1006.7
20260901221606 21 286 0.0 0.0 0.00 0.00 0.00 55 1006.6
20260901221053 21 264 0.0 0.0 0.00 0.00 0.00 55 1006.5
20260901220555 21 283 0.0 0.0 0.00 0.00 0.00 54 1006.6
20260901220052 21 288 0.0 0.0 0.00 0.00 0.00 55 1006.4
20260901215552 21 232 0.0 0.0 0.00 0.00 0.00 55 1006.5
20260901215051 21 262 0.0 0.0 0.00 0.00 0.00 55 1006.5
20260901214551 21 321 0.0 0.0 0.00 0.00 0.00 56 1006.5
20260901214052 21 303 0.0 0.0 0.00 0.00 0.00 56 1006.5
20260901213551 21 291 0.0 0.0 0.00 0.00 0.00 56 1006.5
20260901213053 21 294 0.0 0.0 0.00 0.00 0.00 57 1006.5
20260901212548 20 300 0.0 0.0 0.00 0.00 0.00 57 1006.6
20260901212049 20 275 0.0 0.0 0.00 0.00 0.00 57 1006.8
20260901211549 20 265 0.0 0.0 0.00 0.00 0.00 57 1006.6
20260901211049 20 267 0.0 0.0 0.00 0.00 0.00 57 1006.6
20260901210551 20 280 0.0 0.0 0.00 0.00 0.00 57 1006.7
20260901210048 20 252 0.0 0.0 0.00 0.00 0.00 57 1006.6
20260901205548 20 300 0.0 0.0 0.00 0.00 0.00 58 1006.6
20260901205047 20 302 0.0 0.0 0.00 0.00 0.00 57 1006.6
20260901204546 20 277 0.0 0.0 0.00 0.00 0.00 57 1006.7
20260901204046 20 314 0.0 0.0 0.00 0.00 0.00 57 1006.8
20260901203548 20 292 0.0 0.0 0.00 0.00 0.00 57 1006.8
20260901203054 20 248 0.0 0.0 0.00 0.00 0.00 57 1006.9
20260901202545 20 272 0.0 0.0 0.00 0.00 0.00 58 1006.9
20260901202045 20 207 0.0 0.0 0.00 0.00 0.00 57 1006.9
20260901201550 20 243 0.0 0.0 0.00 0.00 0.00 56 1007.0
20260901201046 21 305 0.0 0.0 0.00 0.00 0.00 56 1006.9
20260901200545 21 297 0.0 0.0 0.00 0.00 0.00 56 1006.8
20260901200044 20 290 0.0 0.0 0.00 0.00 0.00 56 1006.9
20260901195544 20 311 0.0 0.0 0.00 0.00 0.00 57 1006.9
20260901195042 20 313 0.0 0.0 0.00 0.00 0.00 58 1007.0
20260901194543 20 292 0.0 0.0 0.00 0.00 0.00 56 1007.1
20260901194042 20 284 0.0 0.0 0.00 0.00 0.00 57 1007.1
20260901193540 20 297 0.0 0.0 0.00 0.00 0.00 58 1007.3
20260901193039 20 313 0.0 0.0 0.00 0.00 0.00 58 1007.5
20260901192538 20 280 0.0 0.0 0.00 0.00 0.00 58 1007.5
20260901192038 20 303 0.0 0.0 0.00 0.00 0.00 59 1007.7
20260901191542 19 287 0.0 0.0 0.00 0.00 0.00 59 1007.7
20260901191039 19 246 0.0 0.0 0.00 0.00 0.00 59 1007.8
20260901190537 19 308 0.0 0.0 0.00 0.00 0.00 59 1007.9
20260901190039 19 286 0.0 0.0 0.00 0.00 0.00 60 1007.8
20260901185536 19 300 0.0 0.0 0.00 0.00 0.00 60 1007.8
20260901185036 19 267 0.0 0.0 0.00 0.00 0.00 61 1007.9
20260901184534 18 292 0.0 0.0 0.00 0.00 0.00 61 1007.8
20260901184034 18 284 0.0 0.0 0.00 0.00 0.00 61 1007.9
20260901183537 18 279 0.0 0.0 0.00 0.00 0.00 62 1007.9
20260901183056 18 291 0.0 0.0 0.00 0.00 0.00 62 1007.9
20260901182533 18 264 0.0 0.0 0.00 0.00 0.00 63 1007.9
20260901182034 18 289 0.0 0.0 0.00 0.00 0.00 63 1007.9
20260901181534 18 278 0.0 0.0 0.00 0.00 0.00 63 1007.9
20260901181034 18 288 0.0 0.0 0.00 0.00 0.00 63 1008.0
20260901180533 18 246 0.0 0.0 0.00 0.00 0.00 64 1008.1
20260901180033 18 268 0.0 0.0 0.00 0.00 0.00 65 1008.0
20260901175533 17 250 0.0 0.0 0.00 0.00 0.00 66 1008.0
20260901175032 17 290 0.0 0.0 0.00 0.00 0.00 65 1008.1
20260901174532 17 298 0.0 0.0 0.00 0.00 0.00 66 1008.0
20260901174031 17 284 0.0 0.0 0.00 0.00 0.00 66 1008.0
20260901173531 17 265 0.0 0.0 0.00 0.00 0.00 67 1007.8
20260901173031 17 258 0.0 0.0 0.00 0.00 0.00 67 1007.9
20260901172533 17 298 0.0 0.0 0.00 0.00 0.00 67 1007.9
20260901172031 17 252 0.0 0.0 0.00 0.00 0.00 68 1007.9
20260901171546 16 275 0.0 0.0 0.00 0.00 0.00 68 1008.0
20260901171034 16 271 0.0 0.0 0.00 0.00 0.00 68 1007.9
20260901170530 16 286 0.0 0.0 0.00 0.00 0.00 68 1007.8
20260901170043 16 289 0.0 0.0 0.00 0.00 0.00 69 1007.9
20260901165530 16 294 0.0 0.0 0.00 0.00 0.00 68 1007.9
20260901165031 16 321 0.0 0.0 0.00 0.00 0.00 69 1007.8
20260901164530 16 263 0.0 0.0 0.00 0.00 0.00 69 1007.9
20260901164030 16 286 0.0 0.0 0.00 0.00 0.00 69 1008.0
20260901163529 16 228 0.0 0.0 0.00 0.00 0.00 70 1007.9
20260901163038 16 315 0.0 0.0 0.00 0.00 0.00 70 1008.0
20260901162529 16 293 0.0 0.0 0.00 0.00 0.00 70 1007.9
20260901162032 16 296 0.0 0.0 0.00 0.00 0.00 70 1008.0
20260901161530 16 321 0.0 0.0 0.00 0.00 0.00 71 1007.8
20260901161030 16 261 0.0 0.0 0.00 0.00 0.00 71 1008.0
20260901160528 16 278 0.0 0.0 0.00 0.00 0.00 71 1007.8
20260901160032 16 308 0.0 0.0 0.00 0.00 0.00 71 1007.8
20260901155528 16 265 0.0 0.0 0.00 0.00 0.00 71 1007.9
20260901155027 16 278 0.0 0.0 0.00 0.00 0.00 71 1007.9
20260901154527 16 336 0.0 0.0 0.00 0.00 0.00 71 1007.9
20260901154028 15 257 0.0 0.0 0.00 0.00 0.00 71 1007.9
20260901153529 15 263 0.0 0.0 0.00 0.00 0.00 71 1007.7
20260901153029 15 282 0.0 0.0 0.00 0.00 0.00 71 1007.9
20260901152529 15 250 0.0 0.0 0.00 0.00 0.00 71 1007.8
20260901152026 15 248 0.0 0.0 0.00 0.00 0.00 71 1007.8
20260901151526 15 236 0.0 0.0 0.00 0.00 0.00 71 1008.0
20260901151026 15 236 0.0 0.0 0.00 0.00 0.00 71 1007.8
20260901150526 15 240 0.0 0.0 0.00 0.00 0.00 71 1007.7
20260901150025 15 285 0.0 0.0 0.00 0.00 0.00 71 1007.8
20260901145525 15 261 0.0 0.0 0.00 0.00 0.00 71 1007.8
20260901145024 15 267 0.0 0.0 0.00 0.00 0.00 71 1007.7
20260901144523 15 271 0.0 0.0 0.00 0.00 0.00 71 1007.6
20260901144023 15 244 0.0 0.0 0.00 0.00 0.00 71 1007.7
20260901143523 16 211 0.0 0.0 0.00 0.00 0.00 71 1007.6
20260901143022 16 237 0.0 0.0 0.00 0.00 0.00 71 1007.6
20260901142521 16 244 0.0 0.0 0.00 0.00 0.00 71 1007.5
20260901142024 16 254 0.0 0.0 0.00 0.00 0.00 71 1007.6
20260901141531 16 242 0.0 0.0 0.00 0.00 0.00 71 1007.5
20260901141023 16 232 0.0 0.0 0.00 0.00 0.00 71 1007.5
20260901140520 16 205 0.0 0.0 0.00 0.00 0.00 71 1007.3
20260901140022 16 234 0.0 0.0 0.00 0.00 0.00 71 1007.3
20260901135521 16 287 0.0 0.0 0.00 0.00 0.00 71 1007.2
20260901135019 16 261 0.0 0.0 0.00 0.00 0.00 71 1007.3
20260901134518 16 281 0.0 0.0 0.00 0.00 0.00 70 1007.3
20260901134017 16 241 0.0 0.0 0.00 0.00 0.00 70 1007.1
20260901133520 16 265 0.0 0.0 0.00 0.00 0.00 70 1007.1
20260901133018 16 300 0.0 0.0 0.00 0.00 0.00 70 1007.0
20260901132515 16 252 0.0 0.0 0.00 0.00 0.00 70 1006.9
20260901132018 16 286 0.0 0.0 0.00 0.00 0.00 70 1006.9
20260901131518 16 274 0.0 0.0 0.00 0.00 0.00 70 1006.9
20260901131019 16 292 0.0 0.0 0.00 0.00 0.00 70 1006.9
20260901130615 16 254 0.0 0.0 0.00 0.00 0.00 70 1006.8
20260901130013 16 301 0.0 0.0 0.00 0.00 0.00 70 1006.8
20260901125511 16 286 0.0 0.0 0.00 0.00 0.00 69 1006.7
20260901125011 16 263 0.0 0.0 0.00 0.00 0.00 69 1006.8
20260901124510 16 248 0.0 0.0 0.00 0.00 0.00 69 1006.7
20260901124008 16 233 0.0 0.0 0.00 0.00 0.00 69 1006.9
20260901123508 17 247 0.0 0.0 0.00 0.00 0.00 69 1006.6
20260901123010 17 271 0.0 0.0 0.00 0.00 0.00 69 1006.6
20260901122506 17 256 0.0 0.0 0.00 0.00 0.00 68 1006.6
20260901122006 17 289 0.0 0.0 0.00 0.00 0.00 68 1006.6
20260901121506 17 287 0.0 0.0 0.00 0.00 0.00 68 1006.6
20260901121010 17 304 0.0 0.0 0.00 0.00 0.00 68 1006.7
20260901120505 17 242 0.0 0.0 0.00 0.00 0.00 67 1006.7
20260901120005 17 244 0.0 0.0 0.00 0.00 0.00 67 1006.6
20260901115504 17 246 0.0 0.0 0.00 0.00 0.00 67 1006.7
20260901115003 17 247 0.0 0.0 0.00 0.00 0.00 67 1006.8
20260901114502 17 267 0.0 0.0 0.00 0.00 0.00 67 1006.6
20260901114003 17 209 0.0 0.0 0.00 0.00 0.00 67 1006.6
20260901113502 17 261 0.0 0.0 0.00 0.00 0.00 67 1006.6
20260901113000 17 230 0.0 0.0 0.00 0.00 0.00 66 1006.6
20260901112600 17 258 0.0 0.0 0.00 0.00 0.00 66 1006.6
20260901112104 17 259 0.0 0.0 0.00 0.00 0.00 66 1006.5
20260901111603 18 260 0.0 0.0 0.00 0.00 0.00 66 1006.5
20260901111059 18 265 0.0 0.0 0.00 0.00 0.00 65 1006.5
20260901110558 18 228 0.0 0.0 0.00 0.00 0.00 65 1006.5
20260901110059 18 273 0.0 0.0 0.00 0.00 0.00 65 1006.3
20260901105559 18 277 0.0 0.0 0.00 0.00 0.00 65 1006.5
20260901105057 18 242 0.0 0.0 0.00 0.00 0.00 64 1006.5
20260901104601 18 282 0.0 0.0 0.00 0.00 0.00 64 1006.4
20260901104057 18 242 0.0 0.0 0.00 0.00 0.00 64 1006.4
20260901103556 18 198 0.0 0.0 0.00 0.00 0.00 63 1006.3
20260901103059 18 269 0.0 0.0 0.00 0.00 0.00 63 1006.3